This is the latest recevied weather packets stored in our database for station/object KP4CRN. If no packets are shown the sender has not sent any weather packets the latest 10 day(s).
| Time | Temp. | Humidity | Pressure | Rain* | Wind** | Luminosity | Snow |
|---|---|---|---|---|---|---|---|
| 1778149435 | 25.56° C | 93% | 1017 hPa | 0 mm | - | 32 W/m² | - |
| 1778149131 | 25° C | 93% | 1017 hPa | 0 mm | - | 24 W/m² | - |
| 1778148831 | 25° C | 94% | 1016.9 hPa | 0 mm | - | 18 W/m² | - |
| 1778148528 | 25° C | 94% | 1016.6 hPa | 0 mm | - | 13 W/m² | - |
| 1778148226 | 25° C | 95% | 1016.8 hPa | 0 mm | - | 9 W/m² | - |
| 1778147924 | 25° C | 95% | 1016.4 hPa | 0 mm | - | 5 W/m² | - |
| 1778147620 | 25° C | 95% | 1016.6 hPa | 0 mm | - | 3 W/m² | - |
| 1778147318 | 25° C | 95% | 1016.6 hPa | 0 mm | - | 1 W/m² | - |
| 1778147014 | 25° C | 95% | 1016.6 hPa | 0 mm | - | 0 W/m² | - |
| 1778146711 | 25° C | 94% | 1016.6 hPa | 0 mm | - | 0 W/m² | - |
| 1778146410 | 25° C | 94% | 1016.6 hPa | 0 mm | - | 0 W/m² | - |
| 1778146107 | 25° C | 94% | 1016.6 hPa | 0 mm | - | 0 W/m² | - |
| 1778145803 | 25° C | 94% | 1016.6 hPa | 0 mm | - | 0 W/m² | - |
| 1778145500 | 25° C | 94% | 1016.4 hPa | 0 mm | - | 0 W/m² | - |
| 1778145196 | 25° C | 94% | 1016.7 hPa | 0 mm | - | 0 W/m² | - |
| 1778144892 | 25° C | 93% | 1016.7 hPa | 0 mm | - | 0 W/m² | - |
| 1778144588 | 25° C | 93% | 1016.9 hPa | 0 mm | - | 0 W/m² | - |
| 1778144286 | 25.56° C | 93% | 1016.9 hPa | 0 mm | - | 0 W/m² | - |
| 1778143982 | 25.56° C | 92% | 1016.8 hPa | 0 mm | - | 0 W/m² | - |
| 1778143680 | 25.56° C | 92% | 1016.9 hPa | 0 mm | - | 0 W/m² | - |
| 1778143376 | 25.56° C | 92% | 1016.8 hPa | 0 mm | - | 0 W/m² | - |
| 1778143074 | 25.56° C | 93% | 1016.8 hPa | 0 mm | - | 0 W/m² | - |
| 1778142770 | 25.56° C | 93% | 1016.8 hPa | 0 mm | - | 0 W/m² | - |
| 1778142466 | 25.56° C | 93% | 1016.8 hPa | 0 mm | - | 0 W/m² | - |
| 1778142162 | 25.56° C | 93% | 1016.6 hPa | 0 mm | - | 0 W/m² | - |
* Rain latest hour (hover to see other rain measurements)
** Current wind speed in m/s (hover to see current wind gust speed)